International Falls, MN

4:09 AM CDT on April 30, 2017 (GMT -0500)
Falls International

Weather History for KINL - April, 2014

Change the Weather History Date:

Wednesday, April 2, 2014

  Actual Average Record
Temperature  
Mean Temperature 19 °F 32 °F  
Max Temperature 35 °F 44 °F 72 °F (2010)
Min Temperature 3 °F 21 °F -12 °F (1954)
Degree Days  
Heating Degree Days 46 33  
Month to date heating degree days 93 66  
Since 1 July heating degree days 10130 8932  
Cooling Degree Days 0 0  
Month to date cooling degree days 0 0  
Year to date cooling degree days 0 0  
Moisture  
Dew Point 9 °F    
Average Humidity 64    
Maximum Humidity 96    
Minimum Humidity 32    
Precipitation  
Precipitation T in 0.04 in 1.35 in (1963)
Month to date precipitation 0.17 0.08  
Year to date precipitation 3.38 2.22  
Snow  
Snow T in 0.30 in 3.10 in (1960)
Month to date snowfall 2.6 0.6  
Since 1 July snowfall 96.6 65.0  
Snow Depth 28.00 in    
Sea Level Pressure  
Sea Level Pressure 30.23 in    
Wind  
Wind Speed 4 mph (North)    
Max Wind Speed 12 mph    
Max Gust Speed 14 mph    
Visibility 10 miles    
Events      
T = Trace of Precipitation, MM = Missing Value Source: NWS Daily Summary

Daily Weather History Graph

Daily Weather History Graph

Search for Another Location

Airport or City:

Trip Planner

Search our weather history database for the weather conditions in past years. The results will help you decide how hot, cold, wet, or windy it might be!

Date:

Astronomy

Apr. 02, 2014 Rise Set
Actual Time 6:49 AM CDT 7:45 PM CDT
Civil Twilight 6:17 AM CDT 8:17 PM CDT
Nautical Twilight 5:39 AM CDT 8:56 PM CDT
Astronomical Twilight 4:58 AM CDT 9:36 PM CDT
Moon 8:20 AM CDT (4/2) 11:24 PM CDT (4/2)
Length of Visible Light 14h 00m
Length of Day
12h 56m
Waxing Crescent, 10% of the Moon is Illuminated
Apr 2
Waxing Crescent
Apr 7
First Quarter
Apr 15
Full
Apr 22
Last Quarter
Apr 29
New

Hourly Weather History & Observations

Time (CDT) Temp. Windchill Dew Point Humidity Pressure Visibility Wind Dir Wind Speed Gust Speed Precip Events Conditions
12:55 AM 14.0 °F 3.9 °F 8.1 °F 77% 30.15 in 10.0 mi West 6.9 mph - N/A   Clear
1:55 AM 12.9 °F 5.2 °F 7.0 °F 77% 30.16 in 10.0 mi West 4.6 mph - N/A   Clear
2:55 AM 10.0 °F 0.4 °F 5.0 °F 80% 30.17 in 10.0 mi West 5.8 mph - N/A   Clear
3:55 AM 9.0 °F 2.4 °F 3.9 °F 80% 30.19 in 10.0 mi West 3.5 mph - N/A   Clear
4:55 AM 7.0 °F 0.1 °F 3.0 °F 84% 30.20 in 10.0 mi West 3.5 mph - N/A   Clear
5:55 AM 7.0 °F 0.1 °F 3.0 °F 84% 30.22 in 10.0 mi West 3.5 mph - N/A   Clear
7:55 AM 5.0 °F - 3.0 °F 92% 30.25 in 10.0 mi Calm Calm - N/A   Clear
8:55 AM 10.9 °F - 6.1 °F 81% 30.26 in 10.0 mi Calm Calm - N/A   Clear
9:55 AM 18.0 °F - 9.0 °F 68% 30.27 in 10.0 mi Calm Calm - N/A   Clear
10:55 AM 21.9 °F - 10.9 °F 63% 30.27 in 10.0 mi Calm Calm - N/A   Clear
11:55 AM 30.0 °F - 10.9 °F 45% 30.27 in 10.0 mi Calm Calm - N/A   Clear
12:55 PM 32.0 °F 28.7 °F 10.9 °F 42% 30.26 in 10.0 mi NW 3.5 mph - N/A   Clear
1:55 PM 33.1 °F - 12.0 °F 42% 30.24 in 10.0 mi Calm Calm - N/A   Clear
2:55 PM 33.1 °F 30.0 °F 12.0 °F 42% 30.24 in 10.0 mi Variable 3.5 mph - N/A   Clear
3:55 PM 34.0 °F 31.0 °F 10.9 °F 38% 30.24 in 10.0 mi Variable 3.5 mph - N/A   Clear
4:55 PM 34.0 °F 28.0 °F 8.1 °F 34% 30.24 in 10.0 mi NNE 6.9 mph - N/A   Clear
5:55 PM 34.0 °F 26.6 °F 7.0 °F 32% 30.24 in 10.0 mi NNE 9.2 mph - N/A   Clear
6:55 PM 32.0 °F 26.4 °F 10.9 °F 42% 30.26 in 10.0 mi NNE 5.8 mph - N/A   Clear
7:55 PM 30.0 °F 25.2 °F 12.0 °F 47% 30.26 in 10.0 mi NE 4.6 mph - N/A   Clear
8:55 PM 28.0 °F 21.7 °F 12.9 °F 53% 30.24 in 10.0 mi ENE 5.8 mph - N/A   Clear
9:55 PM 28.0 °F 21.7 °F 14.0 °F 56% 30.23 in 10.0 mi East 5.8 mph - N/A   Clear
10:55 PM 28.0 °F 21.7 °F 15.1 °F 58% 30.22 in 10.0 mi East 5.8 mph - N/A   Clear
11:55 PM 26.1 °F 19.4 °F 14.0 °F 60% 30.23 in 10.0 mi East 5.8 mph - N/A   Clear